Location: Newark
(46.0333°N, 5.8167°E)
Time: 10:56:06
(UTC+00:00)

Envisat - Pass Details

Date: 19 September 2019
Orbit: 764 x 766 km, 98.1° (Epoch: 20 October)

Event Time Altitude Azimuth Distance (km) Brightness Sun altitude
Rises 18:19:48 0° 186° (S) 3,219 6.2 -7.5°
Reaches altitude 10° 18:22:14 10° 194° (SSW) 2,298 5.5 -7.9°
Maximum altitude 18:26:58 39° 263° (W) 1,143 4.6 -8.7°
Drops below altitude 10° 18:31:43 10° 332° (NNW) 2,314 6.1 -9.5°
Sets 18:34:11 0° 340° (NNW) 3,244 6.7 -10.0°
